STARLINK-2574 (48395 NORAD) Tracking and Keplerian Element Data

This shows tracking and keplerian element data for the satellite.

Feedback or suggestion? Click here.




ElementValue
Catalog48395
NameSTARLINK-2574
Epoch Orbit366
Epoch Day214.91667824
Epoch Year2021
RAAN322.428
Inclination53.0511
Eccentricity0.0001218
Argument of Perigee72.812
Mean Anonmoly313.4739
Mean Motion15.10502468
Decay Rate-0.01142537
L11 48395U 21038AU 21214.91667824 -.01142537 00000-0 -74459-1 0 9991
L22 48395 53.0511 322.4280 0001218 72.8120 313.4739 15.10502468 3666

Live tracking and technical data element details for STARLINK-2574 (NORAD 48395). STARLINK-2574 can be tracked NOW for your location showing map with azimuth and elevation plus other details from your city location.

Track the satellite on the map from your city or location and see movement details for azimuth, elevation, latitude, longitude, range, height, and movement on the map or in text.







IsCatalogInMostPopularTable: catalog: 48395, numindb: 32
Update: records affected: 1



GetName: 48395 STARLINK-2574

Hit Count: updated at: Wed, 04 Aug 2021 00:51:27 GMT